Weather in Tarnow

Poland     50°00′45″N   20°59′17″E
temp.,
°C
wind,
m/s
gust,
m/s
humid.,
%
clouds,
%
prec.,
mm/h
press.,
hPa
HPBL,
m
17 june, thu
thu1723:00+16ese22860 0.0 101915
02:00+15se11883 0.0 102012
05:00+14se11880 0.0 101911
08:00+19e23810 0.0 1020318
11:00+23ese44670 0.0 10201111
14:00+25e34540 0.0 10191672
17:00+24e556427 0.0 10191324
20:00+19ese378129 0.0 1019147
18 june, fri
fri1823:00+15se33828 0.0 102132
02:00+15se22910 0.0 102012
05:00+15e22920 0.0 101922
08:00+20ese48770 0.0 1020456
11:00+24ese67650 0.0 10191020
14:00+26e67590 0.0 10181193
17:00+25e68690 0.0 1017823
20:00+21e512810 0.0 1017394
19 june, sat
sat1923:00+18ese35920 0.0 101897
02:00+16ese22930 0.0 101820
05:00+16e23940 0.0 101852
08:00+21e47810 0.0 1018451
11:00+24e68670 0.0 1017962
14:00+26e67610 0.0 10161243
17:00+25e57680 0.0 10161152
20:00+21e511810 0.0 1016367
20 june, sun
sun2023:00+17ese36920 0.0 1017109
02:00+16ese22930 0.0 101623
05:00+15ene22940 0.0 101629
08:00+20ese35780 0.0 1016371
11:00+24e44630 0.0 1015710
14:00+27e335511 0.0 10141161
17:00+27e45617 0.0 1012975
20:00+22e4108318 0.0 1012276
21 june, mon
mon2123:00+19ese46880 0.0 1012110
02:00+17se33900 0.0 101233
05:00+17se22900 0.0 101230
08:00+22se23756 0.0 1012297
11:00+26ese44610 0.0 1012794
14:00+28e43550 0.0 10111081
17:00+27e45630 0.0 1010916
20:00+22ese36825 0.0 1011130